FDX681 KMEM-KATL

Flight info

Callsign FDX681
Flight time N/A
Altitude 37000
Route BBKNG7 KERMI HUTCC KNSAW RUSSA GLAVN1
Aircraft B738/M-SDE2E3FGHIRWXY/LB1

Departure

Time 2026-05-04 23:37
Airport Memphis International Airport (KMEM)

Arrival

Time N/A
Airport Hartsfield Jackson Atlanta International Airport (KATL)
Time Latitude Longitude Altitude Speed Heading
2026-05-04 23:19 35.06016 -89.97112 281 ft 0 kts 14°
2026-05-04 23:28 35.06004 -89.97115 281 ft 2 kts
2026-05-04 23:28 35.05993 -89.97117 280 ft 2 kts
2026-05-04 23:28 35.05980 -89.97116 281 ft 2 kts 351°
2026-05-04 23:28 35.05966 -89.97113 283 ft 2 kts 351°
2026-05-04 23:29 35.05949 -89.97108 283 ft 3 kts 332°
2026-05-04 23:29 35.05936 -89.97096 282 ft 2 kts 304°
2026-05-04 23:29 35.05930 -89.97079 283 ft 2 kts 278°
2026-05-04 23:29 35.05929 -89.97064 281 ft 0 kts 272°
2026-05-04 23:33 35.05929 -89.97065 281 ft 0 kts 272°
2026-05-04 23:33 35.05928 -89.97144 278 ft 13 kts 254°
2026-05-04 23:33 35.05861 -89.97187 278 ft 12 kts 185°
2026-05-04 23:34 35.05772 -89.97191 280 ft 14 kts 182°
2026-05-04 23:34 35.05670 -89.97204 278 ft 17 kts 203°
2026-05-04 23:34 35.05592 -89.97319 278 ft 18 kts 237°
2026-05-04 23:34 35.05522 -89.97444 282 ft 18 kts 235°
2026-05-04 23:35 35.05487 -89.97506 286 ft 0 kts 234°
2026-05-04 23:35 35.05486 -89.97507 286 ft 1 kts 234°
2026-05-04 23:35 35.05453 -89.97558 282 ft 12 kts 231°
2026-05-04 23:36 35.05368 -89.97615 284 ft 17 kts 181°
2026-05-04 23:36 35.05152 -89.97611 284 ft 59 kts 179°
2026-05-04 23:36 35.04534 -89.97599 304 ft 117 kts 179°
2026-05-04 23:36 35.03545 -89.97580 348 ft 164 kts 180°
2026-05-04 23:37 35.02351 -89.97536 841 ft 178 kts 178°
2026-05-04 23:37 35.01067 -89.97485 1430 ft 185 kts 181°
2026-05-04 23:37 34.99849 -89.97443 2148 ft 177 kts 181°
2026-05-04 23:37 34.98548 -89.97314 2299 ft 200 kts 167°
2026-05-04 23:38 34.97200 -89.96674 2497 ft 214 kts 163°
2026-05-04 23:38 34.95780 -89.96006 2778 ft 224 kts 163°
2026-05-04 23:38 34.94346 -89.95176 3141 ft 234 kts 146°
2026-05-04 23:38 34.93280 -89.93601 3427 ft 256 kts 118°
2026-05-04 23:39 34.92835 -89.91417 3721 ft 275 kts 99°
2026-05-04 23:39 34.92715 -89.89068 4335 ft 279 kts 96°
2026-05-04 23:39 34.92638 -89.86701 4972 ft 281 kts 96°
2026-05-04 23:39 34.92550 -89.84309 5527 ft 285 kts 96°
2026-05-04 23:40 34.92451 -89.81874 6065 ft 289 kts 96°
2026-05-04 23:40 34.92339 -89.79410 6587 ft 294 kts 96°
2026-05-04 23:40 34.92222 -89.76924 7161 ft 294 kts 96°
2026-05-04 23:40 34.92102 -89.74422 7715 ft 297 kts 96°
2026-05-04 23:41 34.91980 -89.71891 8232 ft 301 kts 96°
2026-05-04 23:41 34.91856 -89.69329 8777 ft 304 kts 96°
2026-05-04 23:41 34.91730 -89.66750 9341 ft 306 kts 95°
2026-05-04 23:41 34.91606 -89.64153 9894 ft 308 kts 94°
2026-05-04 23:42 34.91559 -89.61516 10302 ft 316 kts 92°
2026-05-04 23:42 34.91560 -89.58762 10408 ft 334 kts 91°
2026-05-04 23:42 34.91572 -89.55866 10552 ft 350 kts 91°
2026-05-04 23:42 34.91582 -89.52865 10674 ft 366 kts 91°
2026-05-04 23:43 34.91587 -89.49695 10796 ft 382 kts 91°
2026-05-04 23:43 34.91588 -89.46352 10899 ft 397 kts 91°
2026-05-04 23:43 34.91584 -89.42930 11018 ft 410 kts 91°
2026-05-04 23:43 34.91578 -89.39411 11247 ft 419 kts 91°
2026-05-04 23:44 34.91570 -89.35850 11703 ft 421 kts 91°
2026-05-04 23:44 34.91561 -89.32277 12153 ft 423 kts 91°
2026-05-04 23:44 34.91550 -89.28729 12542 ft 427 kts 91°
2026-05-04 23:44 34.91538 -89.25096 12925 ft 431 kts 91°
2026-05-04 23:45 34.91507 -89.21431 13315 ft 434 kts 94°
2026-05-04 23:45 34.91086 -89.17785 13694 ft 435 kts 103°
2026-05-04 23:45 34.90389 -89.14204 14139 ft 436 kts 105°
2026-05-04 23:45 34.89688 -89.10597 14468 ft 439 kts 103°
2026-05-04 23:46 34.89023 -89.06951 14815 ft 442 kts 103°
2026-05-04 23:46 34.88380 -89.03276 15208 ft 444 kts 102°
2026-05-04 23:46 34.87750 -88.99591 15595 ft 446 kts 102°
2026-05-04 23:46 34.87122 -88.95889 15955 ft 448 kts 102°
2026-05-04 23:47 34.86491 -88.92164 16306 ft 450 kts 102°
2026-05-04 23:47 34.85856 -88.88423 16665 ft 452 kts 102°
2026-05-04 23:47 34.85216 -88.84668 17018 ft 454 kts 101°
2026-05-04 23:47 34.84571 -88.80897 17345 ft 456 kts 101°
2026-05-04 23:48 34.83920 -88.77106 17674 ft 459 kts 101°
2026-05-04 23:48 34.83265 -88.73301 18016 ft 460 kts 101°
2026-05-04 23:48 34.82606 -88.69485 18332 ft 462 kts 101°
2026-05-04 23:48 34.82078 -88.65620 18456 ft 467 kts 94°
2026-05-04 23:49 34.81625 -88.61724 18929 ft 463 kts 101°
2026-05-04 23:49 34.80923 -88.57895 19225 ft 465 kts 103°
2026-05-04 23:49 34.80136 -88.54056 19371 ft 471 kts 104°
2026-05-04 23:49 34.79349 -88.50180 19608 ft 473 kts 103°
2026-05-04 23:50 34.78598 -88.46284 19924 ft 473 kts 102°
2026-05-04 23:50 34.77882 -88.42371 20226 ft 474 kts 102°
2026-05-04 23:50 34.77186 -88.38443 20492 ft 476 kts 102°
2026-05-04 23:50 34.76506 -88.34547 20727 ft 479 kts 101°
2026-05-04 23:51 34.75814 -88.30575 20947 ft 481 kts 102°
2026-05-04 23:51 34.75116 -88.26592 21219 ft 483 kts 102°
2026-05-04 23:51 34.74413 -88.22595 21484 ft 484 kts 102°
2026-05-04 23:51 34.73706 -88.18603 21823 ft 483 kts 102°
2026-05-04 23:52 34.73005 -88.14643 22155 ft 482 kts 101°
2026-05-04 23:52 34.72383 -88.10626 22517 ft 480 kts 99°
2026-05-04 23:52 34.71849 -88.06623 22885 ft 479 kts 98°
2026-05-04 23:52 34.71346 -88.02629 23256 ft 478 kts 98°
2026-05-04 23:53 34.70844 -87.98645 23614 ft 476 kts 98°
2026-05-04 23:53 34.70332 -87.94676 23928 ft 475 kts 98°